Location: Rumah Long Bangan
(2.8362°N, 113.7519°E)
Time: 06:38:52
(UTC+00:00)

deb Centaur AC-2 - Pass Details

Date: 24 October 2021
Orbit: 586 x 1362 km, 30.0° (Epoch: 28 November)

Event Time Altitude Azimuth Distance (km) Brightness Sun altitude
Exits shadow 21:35:12 - 235° (SW) 3,095 7.2 -8.9°
Rises 21:35:15 0° 235° (SW) 3,077 7.2 -8.9°
Reaches altitude 10° 21:37:48 10° 233° (SW) 2,069 6.4 -8.2°
Maximum altitude 21:42:29 74° 149° (SSE) 630 4.2 -7.1°
Drops below altitude 10° 21:46:47 10° 63° (ENE) 1,892 7.4 -6.1°
Sets 21:49:01 0° 61° (ENE) 2,790 8.3 -5.5°
